Weather Roundup
Issued by NWS

Home | Current Version | Previous Version | Text Only | Print | Product List | Glossary On
Versions: 1 2 3 4 5 6 7 8 9 10 11 12 13 14 15 16 17 18 19 20 21 22 23 24 25 26 27 28 29 30 31 32 33 34 35 36 37 38 39 40 41 42 43 44 45 46 47 48 49 50
000
NZUS93 KARX 180959
HRRWXR

CURRENT HOURLY OBSERVATIONS ACROSS
MUCH OF THE UPPER MISSISSIPPI VALLEY
NATIONAL WEATHER SERVICE LA CROSSE WI
400 AM CST THU DEC 18 2014


...SOUTHEAST MINNESOTA...


CITY           SKY/WX    TMP DP  RH WIND       PRES   REMARKS
ROCHESTER      PTCLDY    13   9  84 N3        30.27F
ROCHESTER/MAYO FAIR      14  10  83 CALM      30.28F
WINONA         CLOUDY    19  14  79 CALM      30.33F
AUSTIN         PTCLDY    12  10  92 N3        30.26F
ALBERT LEA     PTCLDY    14  12  92 CALM      30.27F
DODGE CENTER   PTCLDY    10  10 100 CALM      30.26F
PRESTON        PTCLDY    13  10  90 CALM      30.27F
OWATONNA       CLEAR     10   7  85 CALM      30.28F
FARIBAULT      PTCLDY     9   7  92 CALM      30.30F
$$

...ELSEWHERE IN MINNESOTA...


CITY           SKY/WX    TMP DP  RH WIND       PRES   REMARKS
MINNEAPOLIS    MOCLDY    12   9  87 CALM      30.33S
INTNL FALLS    PTCLDY     0  -5  79 CALM      30.31F
DULUTH         LGT SNOW  18  14  84 N3        30.28S
RED WING       FLURRIES  16  12  86 CALM      30.32F
REDWOOD FALLS  PTCLDY     6   2  83 CALM      30.29F
MANKATO        PTCLDY    14   9  79 CALM      30.29F
WORTHINGTON    CLOUDY    10   9  92 E5        30.23F WCI   2
FAIRMONT       PTCLDY     9   5  85 CALM      30.26F
$$

...SOUTHWEST WISCONSIN...


CITY           SKY/WX    TMP DP  RH WIND       PRES   REMARKS
LA CROSSE      CLOUDY    21  14  74 N3        30.32S
PRAIRIE DU CHI CLEAR     15  12  89 CALM      30.31S
BOSCOBEL       CLEAR     13   9  84 CALM      30.31S
LONE ROCK      NOT AVBL
PLATTEVILLE    CLEAR     16  13  89 CALM      30.28S
FORT MC COY    CLOUDY    20  15  78 CALM      30.31S
VIROQUA        PTSUNNY   16  14  92 CALM      30.26R
WIS DELLS      NOT AVBL
$$

...ELSEWHERE IN WISCONSIN...


CITY           SKY/WX    TMP DP  RH WIND       PRES   REMARKS
MILWAUKEE      CLEAR     20  13  74 W6        30.26S WCI  12
MADISON        CLEAR     16  12  84 NW3       30.26S
GREEN BAY      CLOUDY    27  22  81 N9        30.24F WCI  18
EAU CLAIRE     NOT AVBL
BLACK RVR FLS  CLOUDY    21  15  78 CALM      30.29F
MEDFORD        CLOUDY    21  18  88 NE5       30.24R WCI  14
WAUSAU         CLOUDY    23  19  85 N7        30.23F WCI  15
WIS RAPIDS     CLOUDY    22  16  78 W3        30.28S
MARSHFIELD     CLOUDY    22  17  81 NW6       30.25S WCI  14
RICE LAKE      CLOUDY    22  18  84 N3        30.31S
$$

...NORTHEAST IOWA...


CITY           SKY/WX    TMP DP  RH WIND       PRES   REMARKS
DECORAH        CLEAR     14  12  92 CALM      30.27S
MASON CITY     CLOUDY    16  13  88 CALM      30.28F
CHARLES CITY   CLEAR     14  12  92 N5        30.29F WCI   6
OELWEIN        PTCLDY    14  10  85 CALM      30.29S
$$

...ELSEWHERE IN IOWA...


CITY           SKY/WX    TMP DP  RH WIND       PRES   REMARKS
DES MOINES     CLOUDY    23  16  74 E3        30.28S
IOWA CITY      PTCLDY    16  13  88 CALM      30.31S
FORT DODGE     CLOUDY    18  14  86 NE7       30.26F WCI   8
$$

...NORTHERN ILLINOIS...


CITY           SKY/WX    TMP DP  RH WIND       PRES   REMARKS
CHICAGO-OHARE  PTCLDY    20  14  77 CALM      30.27S
CHICAGO-MIDWAY CLOUDY    26  16  65 CALM      30.28S
MOLINE         MOCLDY    18  14  84 CALM      30.29F
ROCKFORD       PTCLDY    20  13  74 N6        30.30S WCI  12
PEORIA         MOCLDY    20  15  81 N3        30.28F
$$

NOTE: "FAIR" INDICATES FEW OR NO CLOUDS BELOW 12,000 FEET WITH NO
SIGNIFICANT WEATHER AND/OR OBSTRUCTIONS TO VISIBILITY. WIND
SPEEDS ARE IN MILES-PER-HOUR.



USA.gov is the U.S. government's official web portal to all federal, state and local government web resources and services.